Roanoke Regional Airport Airport (ROA)

 

Airport Diagram
Current Weather/Forecast (VFR Conditions)
METAR KROA 201154Z 25009KT 10SM BKN120 23/19 A2974 RMK AO2 SLP058 70014 T02280194 10228 20194 53008
TAF KROA 201130Z 2012/2112 25004KT P6SM SCT020 BKN220 FM201600 24010G19KT P6SM VCSH SCT070 BKN150 FM201900 25012G26KT P6SM VCTS SCT050CB BKN090 FM202300 27009G18KT P6SM FEW070 BKN200

All Charts
General
Chart Name Download
AIRPORT DIAGRAM
TAKEOFF MINIMUMS
ALTERNATE MINIMUMS
HOT SPOT

Departures
Chart Name Download
BUFIY TWO (RNAV)
DIXXY SEVEN
HOKEE THREE
MONAT TWO (RNAV)
SCUTA TWO (RNAV)

Approaches
Chart Name Download
ILS OR LOC RWY 34
RNAV (GPS) RWY 06
RNAV (GPS) RWY 24
RNAV (GPS) RWY 34
LDA Y RWY 06
LDA Z RWY 06
VOR/DME-A


Inbound Traffic (Arrivals)

No inbound traffic.


Outbound Traffic (Departures)

No outbound traffic.